Regional Weather Roundup
Issued by NWS Albany, NY

Home | Current Version | Previous Version | Text Only | Print | Product List | Glossary On
Versions: 1 2 3 4 5 6 7 8 9 10 11 12 13 14 15 16 17 18 19 20 21 22 23 24 25 26 27 28 29 30 31 32 33 34 35 36 37 38 39 40 41 42 43 44 45 46 47 48 49 50
000
ASUS41 KALY 040110
RWRALY

NEW YORK STATE HOURLY WEATHER ROUNDUP
NATIONAL WEATHER SERVICE ALBANY NY
800 PM EST TUE MAR 03 2015

NOTE: "FAIR" INDICATES FEW OR NO CLOUDS BELOW 12,000 FEET WITH NO
SIGNIFICANT WEATHER AND/OR NO OBSTRUCTIONS TO VISIBILITY.

NYZ032-033-038>043-046>054-057>066-NYZ062>081-040200-
EAST


CITY           SKY/WX    TMP DP  RH WIND       PRES   REMARKS
ALBANY         SLEET     24  19  81 S17G30    29.89F WCI  11
GLENS FALLS    LGT SNOW  24  19  81 S15G22    29.86F WCI  11
POUGHKEEPSIE   MIX PCPN  26  23  88 SE5       30.00F VSB 3/4 WCI  20
MONTGOMERY     MIX PCPN  27  24  89 S8        29.97F FOG     WCI  19
WHITE PLAINS   FRZ RAIN  26  25  96 CALM      30.03F VSB 1/2
ISLIP          RAIN      33  29  85 S8        30.03F FOG     WCI  26
NEW YORK CITY  RAIN      34  30  86 S14G21    30.03F FOG     WCI  24
CENTRAL PARK   FRZ RAIN  33  29  85 MISG      30.06F FOG
$$

NYZ005>009-017-018-044>046-055-056-040200-
CENTRAL


CITY           SKY/WX    TMP DP  RH WIND       PRES   REMARKS
FULTON         CLOUDY    27  20  75 S9G20     29.66F WCI  18
SYRACUSE       FLURRIES  24  20  84 SE10      29.70F WCI  14
ROME           MIX PCPN  23  21  92 SE12      29.77F WCI  12
ELMIRA         CLOUDY    28  22  78 SW16G28   29.71F WCI  16
BINGHAMTON     CLOUDY    22  18  85 S15G23    29.71F WCI   9
MONTICELLO     CLOUDY    19  19 100 SE7       29.90F WCI  10
$$

NYZ026>034-041>043-040200-
NORTH


CITY           SKY/WX    TMP DP  RH WIND       PRES   REMARKS
WATERTOWN      FRZ RAIN  31  24  75 S16G29    29.60F WCI  20
FORT DRUM      NOT AVBL
MASSENA        LGT SNOW  23  23 100 E6        29.66F VSB 1   WCI  16
SARANAC LAKE   CLOUDY    22  17  81 S12       29.57F WCI  10
PLATTSBURGH    LGT SNOW  23  18  81 S18G30    29.73F WCI   9
$$

NYZ001>004-010>016-019>021-040200-
WEST


CITY           SKY/WX    TMP DP  RH WIND       PRES   REMARKS
NIAGARA FALLS  LGT RAIN  37  34  89 SW24G33   29.55S FOG     WCI  26
BUFFALO        LGT RAIN  37  34  89 SW15G28   29.56R FOG     WCI  28
DUNKIRK        CLOUDY    40  37  89 SW16G26   29.63R FOG     WCI  31
JAMESTOWN      CLOUDY    34  34 100 S9        29.63S WCI  26
WELLSVILLE     FRZ RAIN  29  25  85 SW12G25   29.63R WCI  19
ROCHESTER      CLOUDY    32  26  78 S17G24    29.57F WCI  21
PENN YAN       CLOUDY    28  20  71 S16G28    29.66S WCI  16
$$

             KEY
       WCI = WIND CHILL INDEX
       VSB = VISIBILITY
       HX  = HEAT INDEX
$$


USA.gov is the U.S. government's official web portal to all federal, state and local government web resources and services.